NIMIQ 2

Last updated on Sun Apr 12 2026 00:02:50 GMT+0000 (Coordinated Universal Time)

1 27632U 02062A 26101.42777492 -.00000062 00000+0 00000+0 0 9999 2 27632 9.2932 57.5894 0006318 323.4009 223.4900 1.00271796 43510
UTC large
Height (km)
Speed (km/s)
/
Latitude / Longitude
Inclination (degrees)
Orbital Period (minutes)
Azimuth
Elevation
Range (km)
Doppler Factor

Next 0 passes for location: London (51.5072 / 0.1276)

Sorry there are no passes over London.
NIMIQ 2